Location: Ariel
(45.9570°N, 122.5700°W)
Time: 00:00:05
(UTC-07:00)

Altair - Pass Details

Date: 29 July 2019
Orbit: 1501 x 1683 km, 47.2° (Epoch: 23 August)

Event Time Altitude Azimuth Distance (km) Brightness Sun altitude
Rises 16:12:23 0° 290° (WNW) 4,638 10.5 44.8°
Reaches altitude 10° 16:15:26 10° 288° (WNW) 3,656 10.2 44.3°
Maximum altitude 16:24:25 62° 210° (SSW) 1,674 9.0 42.8°
Drops below altitude 10° 16:33:35 10° 133° (SE) 3,726 9.4 41.3°
Sets 16:36:43 0° 130° (SE) 4,731 9.8 40.8°
